RH
94 92 92 92 89 83 80 87 86 83 84 85 87 51 65 63 63 52 53 55 52 46 36 28 23 28 33 37 60 57 40 32 28 30 23 34 37 27 30 30 31 43 48 56 72
80 64 62 58 55 48 48 73 77 75 80 80 77 38 54 50 36 48 64 59 49 40 32 32 29 26 23 33 42 50 37 25 37 39 41 48 49 47 43 32 31 38 37 35 84
92 85 79 68 48 21 17 51 58 47 70 59 55 64 35 53 29 42 61 62 58 41 36 36 33 30 28 36 34 40 43 29 40 42 40 41 40 38 49 47 31 40 40 37 37
89 62 53 55 48 23 48 64 62 40 46 37 42 40 40 47 31 37 48 35 32 34 34 35 33 36 36 30 37 35 23 25 26 24 30 27 25 31 36 41 37 41 38 42 40
77 53 40 40 35 17 37 44 29 32 36 45 38 34 32 26 31 38 37 33 35 36 34 32 36 41 42 41 41 42 34 31 32 38 39 37 38 32 28 22 26 34 36 43 41
94 79 47 23 20 14 17 20 25 29 35 34 29 27 26 34 36 40 38 36 35 38 37 37 34 37 45 49 50 41 45 44 42 42 41 46 42 37 30 22 19 25 33 36 37
66 41 34 19 15 12 17 17 23 28 35 35 37 30 24 32 37 36 37 39 41 45 41 39 39 42 46 50 47 54 62 48 42 41 43 41 46 41 30 26 24 18 23 32 32
58 30 24 22 16 12 18 20 29 30 30 37 32 32 33 33 33 34 34 34 47 48 46 44 46 44 50 48 51 58 51 66 40 38 36 46 43 26 23 27 28 23 19 24 29
54 38 22 28 20 13 17 26 31 35 28 28 27 24 24 27 32 37 40 44 50 52 54 53 49 54 58 61 62 61 64 54 48 40 40 47 48 33 28 34 35 30 24 25 28
56 39 23 25 21 16 16 23 20 26 28 27 31 22 22 32 37 36 37 52 50 48 48 53 58 62 61 62 67 69 72 60 56 38 41 50 50 38 33 34 39 33 33 31 31
58 32 24 26 21 19 12 24 22 21 34 43 42 35 29 35 39 28 38 44 47 43 54 55 61 56 53 55 64 74 89 75 55 43 51 54 52 44 37 40 43 38 39 45 37
62 32 24 27 22 22 28 56 72 66 30 35 36 39 45 44 39 27 36 47 56 52 49 54 60 51 54 59 68 72 84 77 51 43 57 58 57 47 42 43 42 39 44 50 38
68 35 23 27 22 31 54 72 80 73 36 22 28 32 33 37 39 34 40 50 66 45 50 66 53 55 55 62 77 66 66 63 68 71 60 72 82 72 54 48 44 42 47 42 72
71 50 23 24 30 37 53 62 78 76 39 20 23 30 32 39 39 33 46 55 52 54 61 60 58 60 55 66 74 87 50 64 85 93 85 99 81 73 79 67 62 50 53 50 92
77 62 25 30 28 40 55 68 79 67 60 22 30 35 37 39 40 31 45 45 69 56 62 43 51 55 74 82 70 72 60 78 91 98 95 97 91 80 72 90 94 95 95 85 99
84 66 29 36 35 48 64 79 69 72 52 28 39 47 40 42 42 40 45 42 51 58 44 53 43 57 99 74 61 67 82 71 77 90 87 95 81 72 89 97 95 100 99 97 98
87 61 35 39 46 51 69 58 84 71 25 30 47 48 48 51 50 48 66 83 83 78 68 53 42 39 58 64 54 67 69 74 70 76 90 93 66 91 94 100 100 100 100 98 98
90 52 36 44 37 41 44 43 61 32 48 46 52 50 49 57 49 54 58 65 65 70 75 80 58 43 38 63 91 87 92 92 87 81 72 61 86 88 97 100 100 99 100 98 98
90 47 37 39 31 29 33 78 36 50 50 54 48 47 50 56 61 56 77 74 68 78 85 86 57 38 40 49 67 68 77 81 90 75 83 80 92 90 96 95 94 96 96 98 98
89 38 40 36 25 30 66 51 46 50 54 62 59 58 54 62 65 77 84 72 71 70 83 78 86 44 43 48 57 68 56 87 75 84 77 78 73 84 86 86 88 94 96 97 96
66 62 40 27 21 35 84 41 50 47 53 66 69 66 66 91 95 88 83 66 65 64 85 66 83 56 48 64 70 69 73 81 84 88 90 76 82 88 90 92 94 94 96 97 97
52 91 44 19 63 71 51 54 47 49 56 67 68 65 74 75 97 89 90 78 62 64 76 76 81 84 55 43 52 79 81 74 88 86 82 88 89 90 89 93 93 95 94 97 97
79 68 36 20 96 69 52 48 52 53 53 63 64 64 67 74 84 72 66 59 62 68 88 77 83 84 60 59 48 71 60 77 78 86 88 91 83 65 74 91 91 93 94 95 97
89 100 68 64 65 51 54 48 55 54 53 56 61 62 70 67 67 82 67 57 58 69 66 69 78 91 76 78 74 85 79 73 80 81 86 86 80 72 73 86 88 92 92 94 96
87 87 72 99 74 60 60 58 54 58 56 58 65 65 73 88 84 82 67 64 60 70 68 75 92 82 67 59 64 78 82 83 91 77 84 85 88 83 83 90 94 93 91 96 93
94 88 78 68 61 63 72 65 51 63 67 63 77 56 73 82 67 76 77 71 74 72 89 85 81 78 84 69 69 73 68 76 85 75 71 76 77 68 69 72 82 88 88 94 95
81 75 88 85 76 72 62 52 49 58 58 58 63 70 81 72 58 60 64 68 74 90 91 90 88 83 78 62 83 78 81 86 81 81 76 71 69 60 64 62 77 85 84 88 95
Wind_Speed
18 19 19 19 20 19 19 18 19 17 15 11 8 8 13 15 15 16 20 12 13 15 15 14 15 11 2 1 1 1 6 10 10 8 3 4 6 2 8 8 5 2 4 7 10
20 20 20 20 20 19 20 20 20 18 13 9 5 5 11 11 14 23 15 13 15 16 15 15 14 11 2 1 0 7 6 8 7 6 7 8 9 12 8 8 8 6 2 12 6
20 21 22 22 21 21 22 21 18 13 12 8 7 5 5 5 4 8 14 15 16 13 10 10 10 6 2 2 1 1 8 7 10 9 12 12 16 12 12 15 9 5 15 16 15
21 23 23 23 22 21 22 22 17 11 10 7 7 8 9 4 2 8 16 16 13 11 6 6 6 5 3 3 2 5 8 10 8 12 12 15 14 18 20 19 19 18 19 16 14
22 23 24 23 23 24 25 23 12 8 8 9 7 5 4 7 7 11 11 17 12 9 5 4 5 3 3 4 6 12 10 10 8 11 15 16 19 20 22 21 19 20 19 16 14
22 24 25 25 24 25 27 19 8 9 7 11 14 10 5 7 9 11 16 18 16 10 5 5 3 3 6 5 6 5 11 16 16 17 15 18 22 18 21 18 22 23 23 19 15
25 26 27 25 24 26 28 12 7 8 6 8 6 8 21 9 9 14 16 16 13 9 7 6 4 5 1 6 6 9 16 17 19 15 9 10 17 19 20 17 22 25 24 23 22
27 28 28 25 23 26 26 7 5 8 8 2 5 4 5 3 8 18 26 19 11 5 2 3 2 3 4 4 10 12 10 7 4 7 6 7 21 18 14 15 18 22 21 23 24
28 28 28 26 22 26 23 7 6 2 4 8 4 3 4 8 14 16 19 19 10 8 5 4 2 1 2 4 6 3 11 16 17 4 10 12 18 14 11 11 16 18 19 20 22
28 28 29 25 20 27 19 7 9 10 3 4 9 2 6 10 13 17 23 9 4 3 2 1 0 2 2 4 9 14 20 21 19 9 12 19 27 26 24 19 21 19 17 17 20
27 28 27 25 16 25 19 2 2 2 15 6 3 3 8 20 2 22 28 8 5 3 6 2 2 3 6 7 11 16 18 23 22 23 21 22 26 25 20 16 20 18 16 14 16
27 28 26 23 12 20 22 7 3 2 6 5 3 3 1 8 5 22 29 9 6 6 10 2 1 3 6 10 15 16 20 21 21 13 12 20 26 22 20 18 18 17 14 16 15
26 28 24 20 8 14 18 8 2 1 1 4 4 4 5 7 5 15 18 8 6 9 9 5 3 7 8 12 11 14 15 15 18 18 21 21 17 10 11 12 15 13 10 14 10
25 28 23 17 4 10 4 10 1 1 2 11 8 6 8 5 2 11 13 5 3 8 9 4 4 7 13 9 9 14 5 12 18 16 11 4 4 7 15 10 6 6 7 7 10
24 27 21 12 5 4 9 3 3 1 2 10 5 6 8 7 8 14 11 5 4 11 4 6 8 13 6 6 13 10 18 20 18 14 13 1 5 5 11 10 15 10 11 4 7
23 26 16 9 6 11 6 3 2 2 3 3 4 10 7 6 5 11 9 10 1 5 4 6 8 4 4 14 12 15 17 16 8 4 3 10 5 6 10 12 11 9 5 15 14
22 23 11 7 8 12 2 2 1 5 2 7 5 8 7 8 6 11 7 12 11 10 13 13 3 4 5 13 5 16 15 4 2 2 4 10 4 6 15 12 10 7 13 13 12
20 18 6 9 14 9 2 2 7 0 3 2 5 6 4 10 5 10 6 7 13 10 7 8 4 10 13 5 8 13 7 4 6 7 8 7 6 7 12 11 10 10 9 12 9
17 12 2 14 13 8 2 5 2 2 2 5 5 3 2 3 6 9 6 5 7 9 8 6 5 9 6 7 6 9 9 9 5 5 3 3 2 3 12 13 14 15 15 14 13
10 7 3 15 10 3 3 3 1 1 1 1 3 4 4 7 7 8 5 2 6 7 1 3 8 4 10 5 1 4 11 3 3 5 4 3 4 7 17 16 14 14 13 13 12
4 2 2 13 5 4 3 2 2 2 1 1 1 2 1 3 2 3 3 2 3 8 3 6 3 6 8 7 9 7 6 5 4 3 4 4 4 8 11 10 9 10 10 10 10
2 2 6 8 2 2 2 3 2 4 2 1 2 2 2 1 2 2 3 3 2 6 6 2 4 6 6 10 5 2 8 6 4 6 3 4 3 8 8 7 7 7 8 8 8
1 2 4 4 1 2 2 1 2 3 3 3 3 3 2 2 3 3 3 2 1 4 7 5 1 6 0 3 2 4 11 9 6 3 4 4 3 7 7 6 7 8 8 8 8
2 2 2 4 2 2 3 3 3 2 2 2 2 2 2 2 3 3 4 1 3 1 6 2 3 4 4 5 6 9 14 11 5 3 4 4 5 10 10 8 8 7 7 5 6
2 1 0 1 1 2 1 2 3 3 2 4 3 8 4 2 2 3 3 5 1 2 3 2 3 4 13 17 11 10 13 8 3 3 3 4 4 7 8 7 6 5 7 5 6
3 3 1 2 2 3 2 4 6 3 6 4 5 5 7 4 4 3 1 2 3 1 2 2 3 5 4 2 3 7 7 6 3 2 2 1 2 2 2 2 5 5 3 3 3
3 3 2 3 3 2 4 4 5 5 5 3 6 5 8 11 9 9 6 7 8 5 1 2 5 6 4 5 8 3 2 3 3 2 2 2 2 4 1 2 2 2 3 4 4
Wind_Direction
17 15 11 8 6 3 1 357 353 349 345 347 358 72 99 87 66 62 44 28 17 2 2 3 17 14 28 98 325 244 249 259 266 244 254 22 336 348 326 271 286 262 310 330 314
15 13 12 10 7 5 2 357 351 351 357 3 7 21 143 107 68 55 27 16 5 359 6 11 8 359 21 360 213 227 250 275 337 292 279 315 321 323 316 292 282 236 159 1 333
10 8 7 5 5 5 0 354 352 2 1 6 3 4 172 165 95 23 0 353 352 359 5 9 357 359 8 340 55 256 254 300 275 288 302 297 292 289 289 271 258 316 319 321 315
10 8 5 3 2 1 354 348 350 12 22 21 42 76 92 150 54 359 351 357 347 347 352 353 356 1 329 325 351 275 261 274 285 292 293 286 296 275 267 267 287 288 306 304 288
10 7 5 3 2 1 354 350 356 18 29 44 68 104 89 73 38 344 4 9 357 346 340 327 317 345 310 290 291 256 278 289 286 280 283 286 272 268 268 282 273 271 283 285 291
6 4 3 4 4 3 357 356 15 22 52 75 73 78 64 75 347 355 352 343 343 318 282 257 274 297 282 255 258 311 285 288 288 281 279 275 274 270 262 256 265 258 258 264 283
7 5 2 3 4 4 357 6 26 42 87 108 55 71 62 57 21 12 352 335 326 305 288 266 268 223 131 276 284 282 291 289 273 268 280 277 268 245 261 260 256 260 255 255 266
5 3 1 0 2 4 358 27 59 72 62 101 28 53 75 6 6 7 354 350 7 21 273 305 218 250 253 313 273 282 282 310 132 280 271 217 271 279 272 264 264 262 262 251 255
2 0 359 357 1 5 358 59 62 58 61 52 37 21 50 353 2 0 355 332 339 35 59 83 156 257 203 303 289 185 295 298 307 216 284 229 285 284 283 276 274 267 259 247 248
1 359 357 356 2 7 359 133 57 48 41 35 38 138 44 338 329 352 355 348 356 351 138 61 89 231 238 309 316 306 297 293 287 269 269 279 276 279 276 271 262 261 262 252 238
1 359 356 354 1 9 16 107 357 58 38 41 41 52 335 339 23 0 355 349 348 35 6 25 281 352 343 310 298 288 278 281 284 284 287 281 275 276 279 267 254 252 246 246 247
359 358 357 354 359 10 39 58 38 341 86 35 19 332 333 338 331 359 358 14 4 5 349 277 46 20 322 301 300 297 293 286 289 296 283 280 275 280 271 261 252 252 240 229 216
357 356 358 351 359 17 53 47 33 112 99 43 17 340 338 334 22 359 2 339 356 342 348 299 351 320 325 328 316 303 291 290 290 308 282 270 277 311 289 260 249 227 233 212 182
354 355 355 355 28 2 58 3 73 100 140 3 0 23 336 337 85 8 5 1 356 328 336 286 314 318 320 323 338 305 306 297 298 303 312 177 299 28 347 24 359 193 189 194 166
350 352 351 10 346 34 323 355 145 239 98 353 347 326 346 33 332 10 8 5 4 329 304 10 323 333 317 303 330 270 305 301 293 281 299 125 262 3 359 358 344 17 33 297 74
346 348 350 355 8 345 351 125 164 201 38 19 338 355 358 23 15 336 12 20 303 326 305 282 302 270 262 300 300 286 299 303 274 277 259 355 310 37 6 329 326 18 343 65 39
340 345 352 14 338 339 2 212 257 57 11 355 341 343 341 351 357 4 15 37 37 352 360 326 330 304 312 326 332 335 332 325 297 315 353 354 22 46 345 3 5 348 36 47 54
332 343 347 358 348 348 308 276 61 71 313 1 327 326 24 359 25 360 5 34 37 11 317 346 337 2 350 353 303 318 325 350 315 342 339 30 17 12 0 358 25 27 45 52 50
328 335 329 341 346 349 303 46 20 210 298 320 305 327 25 18 346 352 33 20 27 14 4 334 286 324 318 326 318 338 358 318 279 225 268 16 138 239 11 10 24 29 37 39 37
325 323 287 343 347 353 61 119 143 205 265 311 1 353 332 345 345 13 11 28 4 32 284 340 292 317 317 315 18 316 327 308 327 324 348 60 50 2 348 359 11 23 25 27 34
317 333 336 343 15 44 70 114 171 177 222 301 284 284 305 313 341 323 327 261 4 358 262 322 259 300 303 22 347 355 8 351 278 323 326 348 45 360 345 350 5 23 22 25 28
117 295 346 353 27 39 78 163 161 160 155 214 238 241 259 280 263 267 279 243 12 342 340 7 293 288 294 317 305 323 6 352 324 355 1 311 69 344 350 8 41 39 39 28 38
81 298 347 13 102 97 139 159 238 176 194 207 229 234 226 266 290 244 263 225 271 1 3 350 233 308 254 178 99 358 345 347 305 260 14 328 40 12 1 12 29 47 40 35 31
129 323 13 57 21 116 157 188 213 202 190 189 224 204 229 250 235 293 278 292 2 63 21 283 267 264 288 312 319 301 323 345 332 317 341 35 342 4 10 2 9 28 38 34 45
2 150 48 280 122 111 136 180 180 208 210 194 219 224 202 233 261 241 263 302 220 19 24 36 269 289 280 277 274 271 290 319 353 4 349 7 5 6 350 344 353 359 11 33 70
145 153 88 111 111 142 124 213 209 176 173 202 218 202 192 218 226 262 187 256 296 346 33 353 299 327 288 189 303 288 291 312 283 308 227 276 47 0 356 330 334 339 11 40 20
139 120 141 135 149 190 206 192 210 168 204 220 203 183 223 248 263 266 255 269 273 292 354 345 340 337 278 320 312 228 253 301 301 266 312 338 34 338 37 63 51 1 323 8 30